SCP
0 0 0 0 0 0 0 0 0 0 0 0 0 0 0 0 0 0 0 0 0 0 0 0 0 0 0 0 0 0 0 0 0 0 0 0 0 0 0 0 0 0 0
0 0 0 0 0 0 0 0 0 0 0 0 0 0 0 0 0 0 0 0 0 0 0 0 0 0 0 0 0 0 0 0 0 0 0 0 0 0 0 0 0 0 0
0 0 0 0 0 0 0 0 0 0 0 0 0 0 0 0 0 0 0 0 0 0 0 0 0 0 0 0 0 0 0 0 0 0 0 0 0 0 -0 0 0 0 0
0 0 0 0 0 0 0 0 0 0 0 0 0 0 0 0 0 0 0 0 0 0 0 0 0 0 0 0 0 0 0 0 0 0 0 0 0 0 0 0 0 0 0
0 0 0 0 0 0 0 0 0 0 0 0 0 0 0 0 0 0 0 0 0 0 0 0 0 0 0 0 0 0 0 0 0 0 0 0 0 0 0 0 0 0 0
0 0 0 0 0 0 0 0 0 0 0 0 0 0 0 0 0 0 0 0 0 0 0 0 0 0 0 0 0 0 0 0 0 0 0 0 0 0 0 0 0 0 0
0 0 0 0 0 0 0 0 0 0 0 0 0 0 0 0 0 0 0 0 0 0 0 0 0 0 0 0 0 0 0 0 0 0 0 0 0 0 0 0 0 0 0
0 0 0 0 0 0 0 0 0 0 0 0 0 0 0 0 0 0 0 0 0 0 0 0 0 0 0 0 0 0 0 0 0 0 0 0 0 0 0 0 0 0 0
0 0 0 0 0 0 0 0 0 0 0 0 0 0 0 0 0 0 0 0 0 0 0 0 0 0 0 0 0 0 0 0 0 0 0 0 0 0 0 0 0 0 0
0 0 0 0 0 0 0 0 0 0 0 0 0 0 0 0 0 0 0 0 0 0 0 0 0 0 0 0 0 0 0 0 0 0 0 0 0 0 0 0 0 0 0
0 0 0 0 0 0 0 0 0 0 0 0 0 0 0 0 0 0 0 0 0 0 0 0 0 0 0 0 0 0 0 0 0 0 0 0 0 0 0 0 0 0 0
0 0 0 0 0 0 0 0 0 0 0 -0 0 0 0 0 0 0 0 0 0 0 0 0 0 0 0 0 0 0 0 0 -0 0 0 0 -0 0 0 0 0 0 0
0 0 0 0 0 0 0 0 0 0 0 0 0 0 0 0 0 0 0 0 0 0 0 0 0 0 0 0 0 0 0 0 0 0 0 0 0 0 0 0 0 0 0
0 0 0 0 0 0 0 0 0 0 0 0 0 0 0 0 0 0 0 0 0 0 0 0 0 0 0 0 0 0 0 0 0 0 0 0 -0 -0 0 0 0 0 0
0 0 0 0 0 0 0 0 0 0 0 0 0 0 0 0 0 0 0 0 0 0 0 0 0 0 0 0 0 0 0 0 0 0 0 0 -0 0 -0 -0 0 0 0
0 0 0 0 0 0 0 0 0 0 0 0 0 0 0 0 0 0 0 0 0 0 0 0 0 0 0 0 0 0 0 0 0 0 0 0 0 0 0 0 0 -0 -0
0 0 0 0 0 0 0 0 0 0 0 0 0 0 0 0 0 0 -0 -0 0 0 0 0 0 0 0 0 0 0 0 0 0 -0 0 0 0 0 0 0 0 0 0
0 0 0 0 0 0 0 0 0 0 0 0 0 0 0 0 0 0 0 -0 0 0 0 0 0 0 0 0 0 0 0 0 0 -0 -0 -0 -0 0 0 0 0 0 0
0 0 0 0 0 0 0 0 0 0 0 0 0 0 0 0 0 0 -0 -0 0 0 0 0 0 0 0 0 0 0 0 0 0 0 -0 0 0 0 0 0 0 0 0
0 0 0 0 0 0 0 0 0 0 0 0 0 0 0 0 0 0 0 -0 -0 -0 0 0 0 0 0 0 0 0 0 0 0 0 0 0 0 0 0 0 0 0 0
0 0 0 0 0 0 0 0 0 0 0 0 0 0 0 0 0 0 0 0 0 -0 0 0 0 0 0 0 0 0 0 0 0 0 0 0 0 0 0 0 0 0 0
0 0 0 0 0 0 0 0 0 0 0 0 0 0 0 0 0 0 0 0 0 0 -0 0 0 0 0 0 0 0 0 0 0 0 0 0 0 0 0 0 0 0 0
0 0 0 0 0 0 0 0 0 0 0 0 0 0 0 0 0 0 0 0 0 0 -0 -0 0 0 0 0 0 0 0 0 0 0 0 0 0 0 0 0 0 0 0
0 0 0 0 0 0 0 0 0 0 0 0 0 0 0 0 0 0 0 0 0 0 0 0 0 0 0 0 0 0 0 0 0 0 0 0 0 0 0 0 0 0 0
0 0 0 0 0 0 0 0 0 0 0 0 0 0 0 0 0 0 0 0 0 0 0 0 0 0 0 0 0 0 0 0 0 0 0 0 0 0 0 0 0 0 0
0 0 0 0 0 0 0 -0 0 0 0 0 0 0 0 0 0 0 0 0 0 0 0 0 0 0 0 0 0 0 0 0 0 0 0 0 0 0 0 0 0 0 0
Wind_Speed_500mb
84 89 96 88 83 79 72 58 48 42 39 37 37 37 37 39 42 40 43 50 53 59 65 71 75 80 84 86 83 83 82 81 77 81 82 81 53 43 49 42 23 37 50
88 98 96 88 85 81 68 60 52 48 45 44 42 41 39 40 37 40 47 51 57 63 71 77 79 77 74 71 70 67 69 68 62 58 59 35 53 8 11 22 44 50 38
97 93 87 86 81 72 66 60 55 52 49 44 39 34 34 34 36 42 49 57 64 71 73 71 68 66 63 60 56 55 56 63 58 44 36 23 15 53 30 51 50 55 62
87 70 85 82 74 64 62 59 55 50 42 28 24 28 27 32 40 47 56 64 69 67 62 58 56 56 54 55 54 51 53 54 58 53 50 48 55 45 39 33 66 57 40
63 69 78 75 64 64 61 54 48 39 25 19 21 30 34 40 48 55 61 61 56 54 53 51 51 52 52 51 50 50 50 51 54 54 55 57 57 55 59 58 61 67 64
51 70 67 65 63 60 54 42 32 26 13 15 30 33 39 48 54 56 51 50 51 50 47 49 50 52 51 51 51 51 52 52 51 52 51 54 57 55 52 51 61 76 73
58 63 69 70 62 47 32 27 12 6 17 30 32 38 45 48 44 42 45 48 52 54 54 53 55 52 50 49 47 48 48 47 47 48 49 50 52 53 60 54 66 68 61
54 61 62 56 43 31 17 2 2 17 23 27 35 41 40 35 36 39 40 42 47 54 56 55 58 50 47 48 47 49 50 48 47 49 46 49 49 49 49 46 52 60 49
51 55 52 48 40 16 20 3 16 19 24 31 36 34 32 32 34 36 36 37 44 51 52 53 58 55 49 47 50 49 47 47 47 47 46 43 44 45 41 38 38 41 39
48 49 44 36 28 13 11 12 19 25 30 32 31 27 26 30 30 30 33 36 39 45 50 51 56 55 51 48 48 49 48 46 44 44 42 39 40 42 34 29 29 29 35
45 44 35 25 24 15 20 25 27 28 25 26 25 22 26 28 28 30 32 34 36 40 51 52 54 54 52 52 51 50 50 48 46 42 36 37 36 35 31 22 21 22 25
50 45 37 20 14 8 21 27 25 21 24 27 24 23 23 25 29 32 33 34 32 34 42 50 48 49 49 49 51 52 53 51 50 45 39 34 34 31 29 23 17 17 18
50 44 35 25 10 7 23 19 14 16 19 22 20 20 25 30 34 37 34 36 30 32 36 40 44 44 47 50 52 51 50 51 56 51 39 40 39 32 26 22 18 16 21
52 35 26 15 6 11 9 7 9 10 15 17 18 22 30 35 36 35 36 37 31 31 31 33 37 41 44 44 47 51 53 53 55 57 53 42 42 41 26 19 18 19 23
47 39 20 11 5 5 2 5 5 5 10 17 20 27 31 31 35 39 41 37 30 23 28 29 30 35 39 43 47 48 48 52 55 58 58 58 50 35 31 23 19 23 31
46 28 22 10 4 1 1 4 2 4 13 15 20 23 27 31 39 49 46 33 25 23 26 26 30 38 36 35 42 44 44 45 50 55 55 58 49 50 46 31 23 24 25
38 29 15 8 5 5 8 7 3 12 12 13 15 20 23 28 39 50 52 35 29 28 23 26 30 38 40 32 31 39 41 37 41 47 52 53 52 45 35 38 42 40 35
37 29 21 12 11 11 8 6 12 16 16 11 13 20 21 25 33 45 55 47 28 27 26 33 41 43 41 32 26 32 33 33 40 46 47 51 53 49 46 27 32 36 41
35 24 17 13 14 10 8 11 11 12 11 14 18 17 19 23 29 37 49 54 42 34 36 38 36 29 31 33 21 27 32 31 37 38 45 42 40 46 37 31 30 32 37
28 24 22 16 12 7 10 8 9 9 9 16 18 19 19 20 26 32 37 46 52 48 40 26 23 26 30 31 26 20 30 29 32 34 37 36 35 37 33 30 27 27 27
31 23 12 14 12 9 11 12 8 10 11 12 14 15 21 23 23 29 30 36 46 53 38 28 25 29 32 36 35 31 29 35 39 36 34 34 36 34 31 28 24 22 19
29 25 21 16 10 11 12 11 12 12 9 11 15 18 21 23 22 26 26 28 37 47 50 35 36 37 36 37 39 37 36 33 34 35 35 34 35 33 30 26 25 21 19
26 24 19 15 11 11 16 15 16 13 8 9 15 18 20 20 23 25 26 26 30 39 44 46 40 42 42 41 39 38 36 34 35 36 35 32 31 29 28 25 24 22 20
25 23 17 8 7 8 12 14 16 17 9 11 16 20 19 22 25 25 25 28 24 31 37 36 41 42 45 48 48 45 41 36 33 34 35 37 35 32 29 25 21 20 19
24 20 10 4 2 9 13 5 13 18 10 13 18 17 20 22 25 28 25 28 20 26 33 36 38 44 46 52 52 49 48 46 43 40 42 41 39 37 38 35 29 24 19
26 21 12 7 7 11 9 2 5 12 11 14 17 22 21 21 23 24 26 28 25 24 28 29 32 40 42 44 47 46 42 41 40 42 45 47 49 44 51 46 40 30 25
Wind_Direction_500mb
202 198 198 202 207 207 206 202 206 211 214 217 221 232 245 255 263 272 284 289 293 297 298 298 299 299 300 302 304 305 307 307 308 308 306 307 315 310 296 277 274 296 293
202 201 201 204 208 207 200 202 204 204 211 220 225 231 245 261 275 288 291 294 295 298 302 305 307 307 308 308 310 311 311 312 319 319 322 318 319 314 262 272 283 296 297
210 206 205 207 207 205 198 200 198 203 209 219 227 239 260 284 292 291 295 299 304 308 310 312 313 313 314 316 321 325 328 323 323 317 306 312 292 306 323 303 312 304 304
221 207 204 205 206 199 196 196 194 198 206 215 240 263 295 296 300 305 306 309 310 311 315 319 319 321 323 327 329 326 323 320 318 316 309 296 289 291 301 293 311 315 309
218 202 200 202 195 192 187 185 187 192 204 238 277 313 312 314 315 314 310 309 318 325 327 326 327 328 329 326 323 322 320 318 313 309 305 301 297 291 276 285 301 301 304
190 184 183 182 175 175 174 174 184 198 230 307 322 313 315 317 312 311 320 330 333 336 341 342 340 333 329 329 327 326 323 320 315 311 305 298 291 285 284 284 285 293 303
148 150 154 157 157 148 142 150 169 247 325 326 317 322 319 315 325 335 340 346 351 354 353 351 346 341 338 333 334 331 329 325 318 315 309 301 293 289 291 287 284 286 296
126 140 142 130 119 126 159 287 39 329 328 325 322 317 326 340 345 348 356 0 1 2 359 355 349 348 346 346 342 339 337 327 323 319 316 313 310 303 295 280 281 288 295
114 124 126 129 135 132 138 2 347 339 331 324 328 343 351 354 1 7 6 5 9 2 359 358 356 357 354 351 346 340 340 336 334 328 321 320 323 319 304 291 279 280 290
124 127 127 128 124 83 41 17 341 336 336 346 350 352 0 6 6 9 10 13 12 4 3 3 2 3 3 359 356 353 350 345 343 338 333 332 332 329 315 295 284 281 281
136 135 129 115 76 37 353 350 338 337 345 353 1 6 5 8 6 5 7 10 14 7 9 7 5 8 11 12 10 8 2 358 352 348 341 342 337 337 332 315 299 286 279
155 156 154 142 139 319 323 327 329 338 8 16 11 5 10 5 357 355 352 351 354 357 1 4 2 8 13 13 14 13 18 15 8 358 355 344 346 346 347 333 320 302 293
170 165 159 153 205 314 291 306 341 3 17 25 19 11 5 359 355 350 346 344 344 346 351 2 1 10 12 16 17 16 15 20 22 15 11 7 360 346 340 340 334 315 305
180 171 175 185 239 249 304 354 10 22 29 30 21 11 9 357 352 350 344 342 338 339 346 358 4 6 6 10 13 17 21 26 28 27 26 23 9 4 354 346 344 330 325
181 186 192 179 224 331 26 31 57 17 25 28 21 14 1 8 3 354 343 331 327 331 337 343 356 357 360 9 4 8 10 17 25 29 29 28 28 19 10 3 347 328 324
189 184 175 181 235 244 146 121 111 348 20 21 20 19 18 14 8 4 359 356 351 339 335 333 340 351 347 358 0 3 3 12 16 18 21 24 26 31 34 29 18 9 6
184 180 180 182 157 167 150 125 29 2 11 28 24 5 2 9 12 10 9 1 351 350 340 334 336 338 343 338 350 355 357 3 8 11 10 13 13 17 27 35 43 52 54
187 195 193 182 147 145 137 50 17 28 37 26 12 0 359 11 11 11 13 12 3 1 345 336 332 333 334 340 346 345 348 2 11 5 1 6 4 7 13 15 27 33 34
184 172 163 166 151 138 77 31 43 35 28 17 6 354 6 13 11 10 14 19 15 357 340 336 343 356 356 354 2 359 352 354 357 355 356 359 5 3 5 17 25 27 28
164 154 141 157 149 105 43 16 10 7 2 8 359 7 10 12 9 6 8 13 14 9 0 2 7 359 358 358 357 347 352 354 353 355 354 359 6 5 356 355 9 17 25
155 159 161 175 141 78 25 2 359 355 8 349 345 351 10 13 10 1 360 5 10 14 17 16 9 9 15 22 14 3 353 351 351 352 355 357 355 353 355 354 355 4 0
155 160 165 155 107 60 25 1 3 358 350 329 338 345 1 10 9 0 354 356 3 14 24 24 28 25 24 22 20 16 9 2 359 1 1 357 355 350 349 349 346 343 344
151 153 159 143 104 48 20 11 4 347 340 336 349 350 3 359 356 354 351 348 354 8 17 23 22 18 19 18 14 12 6 1 358 357 355 352 346 341 343 340 340 344 341
151 157 158 135 74 30 13 24 22 8 338 3 346 359 3 359 355 350 356 352 347 3 12 12 14 10 9 9 10 8 5 2 356 350 350 349 348 349 347 345 346 346 347
168 171 165 123 8 356 354 14 22 20 40 2 356 357 356 1 8 2 358 359 358 0 8 11 10 3 2 2 0 358 353 353 352 350 348 346 343 348 351 349 351 351 349
167 168 167 195 280 320 309 306 3 19 15 345 349 356 349 355 355 353 4 13 12 360 5 6 3 4 354 352 353 352 351 353 356 359 356 354 352 356 356 354 350 348 346
Wind_Speed_850mb
84 89 96 88 83 79 72 58 48 42 39 37 37 37 37 39 42 40 43 50 53 59 65 71 75 80 84 86 83 83 82 81 77 81 82 81 53 43 49 42 23 37 50
88 98 96 88 85 81 68 60 52 48 45 44 42 41 39 40 37 40 47 51 57 63 71 77 79 77 74 71 70 67 69 68 62 58 59 35 53 8 11 22 44 50 38
97 93 87 86 81 72 66 60 55 52 49 44 39 34 34 34 36 42 49 57 64 71 73 71 68 66 63 60 56 55 56 63 58 44 36 23 15 53 30 51 50 55 62
87 70 85 82 74 64 62 59 55 50 42 28 24 28 27 32 40 47 56 64 69 67 62 58 56 56 54 55 54 51 53 54 58 53 50 48 55 45 39 33 66 57 40
63 69 78 75 64 64 61 54 48 39 25 19 21 30 34 40 48 55 61 61 56 54 53 51 51 52 52 51 50 50 50 51 54 54 55 57 57 55 59 58 61 67 64
51 70 67 65 63 60 54 42 32 26 13 15 30 33 39 48 54 56 51 50 51 50 47 49 50 52 51 51 51 51 52 52 51 52 51 54 57 55 52 51 61 76 73
58 63 69 70 62 47 32 27 12 6 17 30 32 38 45 48 44 42 45 48 52 54 54 53 55 52 50 49 47 48 48 47 47 48 49 50 52 53 60 54 66 68 61
54 61 62 56 43 31 17 2 2 17 23 27 35 41 40 35 36 39 40 42 47 54 56 55 58 50 47 48 47 49 50 48 47 49 46 49 49 49 49 46 52 60 49
51 55 52 48 40 16 20 3 16 19 24 31 36 34 32 32 34 36 36 37 44 51 52 53 58 55 49 47 50 49 47 47 47 47 46 43 44 45 41 38 38 41 39
48 49 44 36 28 13 11 12 19 25 30 32 31 27 26 30 30 30 33 36 39 45 50 51 56 55 51 48 48 49 48 46 44 44 42 39 40 42 34 29 29 29 35
45 44 35 25 24 15 20 25 27 28 25 26 25 22 26 28 28 30 32 34 36 40 51 52 54 54 52 52 51 50 50 48 46 42 36 37 36 35 31 22 21 22 25
50 45 37 20 14 8 21 27 25 21 24 27 24 23 23 25 29 32 33 34 32 34 42 50 48 49 49 49 51 52 53 51 50 45 39 34 34 31 29 23 17 17 18
50 44 35 25 10 7 23 19 14 16 19 22 20 20 25 30 34 37 34 36 30 32 36 40 44 44 47 50 52 51 50 51 56 51 39 40 39 32 26 22 18 16 21
52 35 26 15 6 11 9 7 9 10 15 17 18 22 30 35 36 35 36 37 31 31 31 33 37 41 44 44 47 51 53 53 55 57 53 42 42 41 26 19 18 19 23
47 39 20 11 5 5 2 5 5 5 10 17 20 27 31 31 35 39 41 37 30 23 28 29 30 35 39 43 47 48 48 52 55 58 58 58 50 35 31 23 19 23 31
46 28 22 10 4 1 1 4 2 4 13 15 20 23 27 31 39 49 46 33 25 23 26 26 30 38 36 35 42 44 44 45 50 55 55 58 49 50 46 31 23 24 25
38 29 15 8 5 5 8 7 3 12 12 13 15 20 23 28 39 50 52 35 29 28 23 26 30 38 40 32 31 39 41 37 41 47 52 53 52 45 35 38 42 40 35
37 29 21 12 11 11 8 6 12 16 16 11 13 20 21 25 33 45 55 47 28 27 26 33 41 43 41 32 26 32 33 33 40 46 47 51 53 49 46 27 32 36 41
35 24 17 13 14 10 8 11 11 12 11 14 18 17 19 23 29 37 49 54 42 34 36 38 36 29 31 33 21 27 32 31 37 38 45 42 40 46 37 31 30 32 37
28 24 22 16 12 7 10 8 9 9 9 16 18 19 19 20 26 32 37 46 52 48 40 26 23 26 30 31 26 20 30 29 32 34 37 36 35 37 33 30 27 27 27
31 23 12 14 12 9 11 12 8 10 11 12 14 15 21 23 23 29 30 36 46 53 38 28 25 29 32 36 35 31 29 35 39 36 34 34 36 34 31 28 24 22 19
29 25 21 16 10 11 12 11 12 12 9 11 15 18 21 23 22 26 26 28 37 47 50 35 36 37 36 37 39 37 36 33 34 35 35 34 35 33 30 26 25 21 19
26 24 19 15 11 11 16 15 16 13 8 9 15 18 20 20 23 25 26 26 30 39 44 46 40 42 42 41 39 38 36 34 35 36 35 32 31 29 28 25 24 22 20
25 23 17 8 7 8 12 14 16 17 9 11 16 20 19 22 25 25 25 28 24 31 37 36 41 42 45 48 48 45 41 36 33 34 35 37 35 32 29 25 21 20 19
24 20 10 4 2 9 13 5 13 18 10 13 18 17 20 22 25 28 25 28 20 26 33 36 38 44 46 52 52 49 48 46 43 40 42 41 39 37 38 35 29 24 19
26 21 12 7 7 11 9 2 5 12 11 14 17 22 21 21 23 24 26 28 25 24 28 29 32 40 42 44 47 46 42 41 40 42 45 47 49 44 51 46 40 30 25
Wind_Direction_850mb
202 198 198 202 207 207 206 202 206 211 214 217 221 232 245 255 263 272 284 289 293 297 298 298 299 299 300 302 304 305 307 307 308 308 306 307 315 310 296 277 274 296 293
202 201 201 204 208 207 200 202 204 204 211 220 225 231 245 261 275 288 291 294 295 298 302 305 307 307 308 308 310 311 311 312 319 319 322 318 319 314 262 272 283 296 297
210 206 205 207 207 205 198 200 198 203 209 219 227 239 260 284 292 291 295 299 304 308 310 312 313 313 314 316 321 325 328 323 323 317 306 312 292 306 323 303 312 304 304
221 207 204 205 206 199 196 196 194 198 206 215 240 263 295 296 300 305 306 309 310 311 315 319 319 321 323 327 329 326 323 320 318 316 309 296 289 291 301 293 311 315 309
218 202 200 202 195 192 187 185 187 192 204 238 277 313 312 314 315 314 310 309 318 325 327 326 327 328 329 326 323 322 320 318 313 309 305 301 297 291 276 285 301 301 304
190 184 183 182 175 175 174 174 184 198 230 307 322 313 315 317 312 311 320 330 333 336 341 342 340 333 329 329 327 326 323 320 315 311 305 298 291 285 284 284 285 293 303
148 150 154 157 157 148 142 150 169 247 325 326 317 322 319 315 325 335 340 346 351 354 353 351 346 341 338 333 334 331 329 325 318 315 309 301 293 289 291 287 284 286 296
126 140 142 130 119 126 159 287 39 329 328 325 322 317 326 340 345 348 356 0 1 2 359 355 349 348 346 346 342 339 337 327 323 319 316 313 310 303 295 280 281 288 295
114 124 126 129 135 132 138 2 347 339 331 324 328 343 351 354 1 7 6 5 9 2 359 358 356 357 354 351 346 340 340 336 334 328 321 320 323 319 304 291 279 280 290
124 127 127 128 124 83 41 17 341 336 336 346 350 352 0 6 6 9 10 13 12 4 3 3 2 3 3 359 356 353 350 345 343 338 333 332 332 329 315 295 284 281 281
136 135 129 115 76 37 353 350 338 337 345 353 1 6 5 8 6 5 7 10 14 7 9 7 5 8 11 12 10 8 2 358 352 348 341 342 337 337 332 315 299 286 279
155 156 154 142 139 319 323 327 329 338 8 16 11 5 10 5 357 355 352 351 354 357 1 4 2 8 13 13 14 13 18 15 8 358 355 344 346 346 347 333 320 302 293
170 165 159 153 205 314 291 306 341 3 17 25 19 11 5 359 355 350 346 344 344 346 351 2 1 10 12 16 17 16 15 20 22 15 11 7 360 346 340 340 334 315 305
180 171 175 185 239 249 304 354 10 22 29 30 21 11 9 357 352 350 344 342 338 339 346 358 4 6 6 10 13 17 21 26 28 27 26 23 9 4 354 346 344 330 325
181 186 192 179 224 331 26 31 57 17 25 28 21 14 1 8 3 354 343 331 327 331 337 343 356 357 360 9 4 8 10 17 25 29 29 28 28 19 10 3 347 328 324
189 184 175 181 235 244 146 121 111 348 20 21 20 19 18 14 8 4 359 356 351 339 335 333 340 351 347 358 0 3 3 12 16 18 21 24 26 31 34 29 18 9 6
184 180 180 182 157 167 150 125 29 2 11 28 24 5 2 9 12 10 9 1 351 350 340 334 336 338 343 338 350 355 357 3 8 11 10 13 13 17 27 35 43 52 54
187 195 193 182 147 145 137 50 17 28 37 26 12 0 359 11 11 11 13 12 3 1 345 336 332 333 334 340 346 345 348 2 11 5 1 6 4 7 13 15 27 33 34
184 172 163 166 151 138 77 31 43 35 28 17 6 354 6 13 11 10 14 19 15 357 340 336 343 356 356 354 2 359 352 354 357 355 356 359 5 3 5 17 25 27 28
164 154 141 157 149 105 43 16 10 7 2 8 359 7 10 12 9 6 8 13 14 9 0 2 7 359 358 358 357 347 352 354 353 355 354 359 6 5 356 355 9 17 25
155 159 161 175 141 78 25 2 359 355 8 349 345 351 10 13 10 1 360 5 10 14 17 16 9 9 15 22 14 3 353 351 351 352 355 357 355 353 355 354 355 4 0
155 160 165 155 107 60 25 1 3 358 350 329 338 345 1 10 9 0 354 356 3 14 24 24 28 25 24 22 20 16 9 2 359 1 1 357 355 350 349 349 346 343 344
151 153 159 143 104 48 20 11 4 347 340 336 349 350 3 359 356 354 351 348 354 8 17 23 22 18 19 18 14 12 6 1 358 357 355 352 346 341 343 340 340 344 341
151 157 158 135 74 30 13 24 22 8 338 3 346 359 3 359 355 350 356 352 347 3 12 12 14 10 9 9 10 8 5 2 356 350 350 349 348 349 347 345 346 346 347
168 171 165 123 8 356 354 14 22 20 40 2 356 357 356 1 8 2 358 359 358 0 8 11 10 3 2 2 0 358 353 353 352 350 348 346 343 348 351 349 351 351 349
167 168 167 195 280 320 309 306 3 19 15 345 349 356 349 355 355 353 4 13 12 360 5 6 3 4 354 352 353 352 351 353 356 359 356 354 352 356 356 354 350 348 346